Stations météo

réclame
Mon MeteoGroup
L9F, Pays-Bas (6207): Température de l'air & dewpoint: 09.11.2018 22:00:00 - 15.11.2018 22:00:00 (CET)L9F, Pays-Bas (6207): Vitesse du vent & gusts: 09.11.2018 22:00:00 - 15.11.2018 22:00:00 (CET)L9F, Pays-Bas (6207): Direction du vent: 09.11.2018 22:00:00 - 15.11.2018 22:00:00 (CET)L9F, Pays-Bas (6207): reduced air pressure: 09.11.2018 22:00:00 - 15.11.2018 22:00:00 (CET)L9F, Pays-Bas (6207): visibility: 09.11.2018 22:00:00 - 15.11.2018 22:00:00 (CET)
Date & Time tt [°C] td [°C] ff [km/h] ff [knt] fx [km/h] fx [knt] dd ppp [hPa] vv [km]
15.11.2018 22:00:00 9,8 6,8 34 18 36 19 S 1025,7 10
15.11.2018 21:00:00 9,9 6,8 34 18 32 18 SSE 1025,3 10
15.11.2018 20:00:00 10,1 7,0 31 17 29 16 SSE 1025,2 10
15.11.2018 19:00:00 10,3 7,3 26 14 25 14 SSE 1024,9 10
15.11.2018 18:00:00 10,2 7,5 26 14 25 14 SSE 1024,8 10
15.11.2018 17:00:00 10,1 7,6 24 13 25 14 SSE 1024,7 10
15.11.2018 16:00:00 10,4 7,1 26 14 25 14 SSE 1024,7 10
15.11.2018 15:00:00 10,1 7,5 26 14 25 14 SSE 1024,7 10
15.11.2018 14:00:00 9,6 7,5 26 14 32 18 S 1024,7 10
15.11.2018 13:00:00 9,1 7,5 29 16 29 16 S 1024,8 9
15.11.2018 12:00:00 9,0 7,7 28 15 32 18 S 1024,8 10
15.11.2018 11:00:00 9,3 7,4 29 16 29 16 S 1025,1 10
15.11.2018 10:00:00 9,2 7,3 29 16 32 18 S 1025,1 10
15.11.2018 09:00:00 9,3 7,3 34 18 32 18 S 1025,1 10
15.11.2018 08:00:00 9,4 7,5 34 18 32 18 S 1024,9 10
15.11.2018 07:00:00 9,5 7,6 29 16 32 18 S 1024,5 10
15.11.2018 06:00:00 9,6 7,7 34 18 32 18 S 1024,4 10
15.11.2018 05:00:00 9,8 8,0 34 18 32 18 S 1024,3 10
15.11.2018 04:00:00 10,2 7,9 34 18 32 18 S 1024,3 10
15.11.2018 03:00:00 10,2 8,1 34 18 36 19 S 1024,4 10
15.11.2018 02:00:00 10,5 8,0 34 18 36 19 S 1024,6 10
15.11.2018 01:00:00 10,7 7,9 34 18 36 19 S 1024,7 10
15.11.2018 00:00:00 10,6 8,0 39 21 40 21 S 1025,0 10
14.11.2018 23:00:00 11,0 8,2 41 22 43 23 S 1025,2 10
14.11.2018 22:00:00 10,9 8,3 42 23 47 25 S 1025,0 10
14.11.2018 21:00:00 11,3 8,5 46 25 47 25 S 1025,1 10
14.11.2018 20:00:00 11,4 8,9 46 25 43 23 S 1025,0 10
14.11.2018 19:00:00 11,4 9,1 42 23 47 25 S 1024,9 10
14.11.2018 18:00:00 11,8 9,2 44 24 50 27 SSW 1024,8 10
14.11.2018 17:00:00 11,8 9,3 48 26 47 25 SSW 1024,6 10
14.11.2018 16:00:00 11,7 9,5 46 25 47 25 SSW 1024,6 10
14.11.2018 15:00:00 11,7 9,8 42 23 43 23 SSW 1024,7 10
14.11.2018 14:00:00 11,6 9,6 42 23 43 23 SSW 1024,7 10
14.11.2018 13:00:00 11,3 9,4 46 25 47 25 SSW 1025,2 10
14.11.2018 12:00:00 11,1 9,1 46 25 47 25 SSW 1025,4 10
14.11.2018 11:00:00 11,1 9,7 42 23 47 25 SSW 1025,7 10
14.11.2018 10:00:00 11,2 10,0 42 23 47 25 SSW 1025,5 10
14.11.2018 09:00:00 11,4 10,1 44 24 47 25 SSW 1025,3 10
14.11.2018 08:00:00 11,6 10,5 42 23 47 25 SSW 1025,2 8
14.11.2018 07:00:00 11,7 11,0 41 22 40 21 SSW 1024,9 8
14.11.2018 06:00:00 11,9 10,7 35 19 32 18 SSW 1024,9 10
14.11.2018 05:00:00 12,4 10,1 34 18 32 18 SSW 1025,0 10
14.11.2018 04:00:00 12,6 8,8 31 17 32 18 SW 1024,7 10
14.11.2018 03:00:00 12,7 8,7 26 14 32 18 SW 1025,1 10
14.11.2018 02:00:00 12,6 8,0 35 19 36 19 WSW 1025,7 10
14.11.2018 01:00:00 12,5 8,0 37 20 36 19 WSW 1025,7 10
14.11.2018 00:00:00 12,5 8,1 37 20 40 21 WSW 1025,3 10
13.11.2018 23:00:00 12,5 8,2 41 22 43 23 WSW 1024,9 10
13.11.2018 22:00:00 12,4 7,4 41 22 43 23 WSW 1024,5 10
13.11.2018 21:00:00 12,4 7,4 44 24 43 23 W 1024,0 10
13.11.2018 20:00:00 12,3 7,3 44 24 47 25 WSW 1023,4 10
13.11.2018 19:00:00 12,3 7,8 44 24 50 27 WSW 1022,9 10
13.11.2018 18:00:00 12,2 7,7 46 25 50 27 WSW 1022,1 10
13.11.2018 17:00:00 12,0 7,5 50 27 50 27 WSW 1021,1 10
13.11.2018 16:00:00 11,8 7,1 52 28 54 29 WSW 1020,0 10
13.11.2018 15:00:00 11,6 7,4 52 28 54 29 WSW 1019,0 10
13.11.2018 14:00:00 11,7 7,8 52 28 54 29 WSW 1018,2 10
13.11.2018 13:00:00 11,3 7,5 52 28 54 29 WSW 1017,3 10
13.11.2018 12:00:00 11,7 7,3 52 28 54 29 WSW 1016,8 10
13.11.2018 11:00:00 12,1 7,8 54 29 58 31 WSW 1016,2 10
13.11.2018 10:00:00 12,1 7,7 55 30 58 31 WSW 1015,3 10
13.11.2018 09:00:00 12,2 8,2 44 24 65 35 SW 1014,4 10
13.11.2018 08:00:00 11,8 8,4 46 25 68 37 SW 1014,5 3,9
13.11.2018 07:00:00 11,7 7,9 65 35 72 39 SSW 1013,9 10
13.11.2018 06:00:00 12,3 7,4 55 30 58 31 SSW 1014,0 10
13.11.2018 05:00:00 11,2 8,4 48 26 58 31 SSW 1014,5 10
13.11.2018 04:00:00 11,6 8,6 63 34 61 33 SSW 1014,5 10
13.11.2018 03:00:00 11,4 9,8 57 31 58 31 SSW 1015,0 10
13.11.2018 02:00:00 11,0 9,6 55 30 54 29 SSW 1014,8 10
13.11.2018 01:00:00 11,6 10,1 55 30 54 29 SSW 1014,5 10
13.11.2018 00:00:00 11,3 10,0 46 25 50 27 SSW 1014,6 8
12.11.2018 23:00:00 12,2 10,4 50 27 50 27 SSW 1014,6 10
12.11.2018 22:00:00 12,5 10,7 52 28 50 27 SSW 1014,6 10
12.11.2018 21:00:00 12,3 10,8 46 25 47 25 SSW 1014,4 10
12.11.2018 20:00:00 12,4 10,6 46 25 47 25 SSW 1014,2 10
12.11.2018 19:00:00 12,4 9,9 42 23 43 23 SSW 1013,9 10
12.11.2018 18:00:00 12,5 9,3 44 24 47 25 SW 1013,1 10
12.11.2018 17:00:00 12,6 8,9 37 20 43 23 SW 1012,8 10
12.11.2018 16:00:00 12,1 10,7 29 16 32 18 S 1012,1 10
12.11.2018 15:00:00 11,8 10,7 29 16 29 16 SSW 1012,0 10
12.11.2018 14:00:00 11,6 10,6 29 16 32 18 SSW 1011,9 10
12.11.2018 13:00:00 11,4 10,4 31 17 32 18 S 1011,8 9
12.11.2018 12:00:00 11,3 10,2 31 17 32 18 SSW 1012,0 7
12.11.2018 11:00:00 11,2 10,1 34 18 36 19 S 1011,9 6
12.11.2018 10:00:00 11,0 10,0 37 20 40 21 S 1011,7 5
12.11.2018 09:00:00 10,9 9,9 35 19 36 19 SSW 1011,4 6
12.11.2018 08:00:00 10,7 9,7 34 18 36 19 S 1011,0 7
12.11.2018 07:00:00 10,5 9,5 34 18 36 19 S 1010,7 8
12.11.2018 06:00:00 10,8 9,9 34 18 32 18 S 1010,6 8
12.11.2018 05:00:00 11,0 10,1 35 19 36 19 SSW 1010,6 8
12.11.2018 04:00:00 11,3 10,5 37 20 40 21 S 1010,5 10
12.11.2018 03:00:00 11,9 10,6 42 23 43 23 SSW 1009,7 10
12.11.2018 02:00:00 11,7 10,6 44 24 50 27 SSW 1009,6 10
12.11.2018 01:00:00 11,8 10,4 46 25 50 27 SSW 1009,2 10
12.11.2018 00:00:00 12,6 10,5 48 26 47 25 SSW 1008,5 10
11.11.2018 23:00:00 12,8 10,9 42 23 43 23 SSW 1007,9 10
11.11.2018 22:00:00 13,0 10,3 35 19 43 23 SW 1007,3 10
11.11.2018 21:00:00 12,8 10,5 44 24 54 29 SW 1006,4 10
11.11.2018 20:00:00 12,8 9,4 57 31 54 29 SW 1005,5 10
11.11.2018 19:00:00 12,2 10,0 50 27 54 29 SSW 1004,8 10
11.11.2018 18:00:00 12,6 9,4 57 31 58 31 SSW 1003,9 10
11.11.2018 17:00:00 12,8 9,4 55 30 61 33 SSW 1003,3 10
11.11.2018 16:00:00 12,6 9,0 61 33 65 35 SSW 1002,6 10
11.11.2018 15:00:00 12,7 9,7 57 31 65 35 SSW 1002,1 10
11.11.2018 14:00:00 12,5 10,1 65 35 72 39 SSW 1001,4 10
11.11.2018 13:00:00 12,5 9,9 63 34 65 35 SSW 1001,4 10
11.11.2018 12:00:00 11,8 10,2 50 27 54 29 S 1001,0 10
11.11.2018 11:00:00 11,5 10,2 52 28 58 31 S 1000,8 10
11.11.2018 10:00:00 11,5 9,9 61 33 65 35 S 1000,5 10
11.11.2018 09:00:00 11,6 9,8 55 30 58 31 S 1000,1 10
11.11.2018 08:00:00 11,6 10,0 59 32 61 33 S 999,5 10
11.11.2018 07:00:00 11,6 9,9 55 30 58 31 S 999,3 10
11.11.2018 06:00:00 11,6 10,0 57 31 58 31 S 999,1 10
11.11.2018 05:00:00 11,5 10,1 57 31 61 33 S 999,2 10
11.11.2018 04:00:00 11,4 9,9 55 30 54 29 S 999,2 10
11.11.2018 03:00:00 11,2 9,6 50 27 50 27 S 999,6 10
11.11.2018 02:00:00 11,0 9,6 42 23 50 27 S 999,7 10
11.11.2018 01:00:00 11,4 9,8 46 25 50 27 S 999,9 10
11.11.2018 00:00:00 11,5 10,2 39 21 43 23 S 1000,0 9
10.11.2018 23:00:00 11,8 10,2 42 23 43 23 SSW 1000,0 10
10.11.2018 22:00:00 11,5 10,5 39 21 43 23 SSW 1000,2 10
10.11.2018 21:00:00 11,6 10,8 37 20 36 19 S 999,8 9
10.11.2018 20:00:00 11,6 10,8 39 21 43 23 S 999,8 10
10.11.2018 19:00:00 11,6 10,7 44 24 43 23 S 999,7 10
10.11.2018 18:00:00 11,7 10,6 44 24 50 27 S 999,6 10
10.11.2018 17:00:00 12,0 10,4 48 26 47 25 S 999,5 10
10.11.2018 16:00:00 12,2 10,6 41 22 43 23 S 999,7 10
10.11.2018 15:00:00 12,4 10,7 46 25 50 27 S 999,6 10
10.11.2018 14:00:00 12,6 10,6 52 28 54 29 S 999,8 10
10.11.2018 13:00:00 12,4 10,8 55 30 58 31 SSW 999,5 10
10.11.2018 12:00:00 12,3 10,8 50 27 58 31 S 999,3 10
10.11.2018 11:00:00 12,2 10,6 57 31 61 33 SSW 999,4 10
10.11.2018 10:00:00 11,9 10,5 55 30 61 33 S 998,5 10
10.11.2018 09:00:00 11,3 10,3 63 34 68 37 S 998,3 9
10.11.2018 08:00:00 11,3 10,0 70 38 79 43 S 997,9 -
10.11.2018 07:00:00 11,9 9,7 70 38 79 43 - 997,3 10
10.11.2018 06:00:00 11,7 9,2 70 38 76 41 - 997,9 10
10.11.2018 05:00:00 11,9 9,2 63 34 65 35 SSE 998,5 10
10.11.2018 04:00:00 11,7 9,2 63 34 65 35 - 999,5 10
10.11.2018 03:00:00 11,5 9,2 57 31 61 33 SSE 1000,8 10
10.11.2018 02:00:00 11,4 9,2 55 30 61 33 - 1001,8 10
10.11.2018 01:00:00 11,7 9,3 57 31 58 31 - 1003,1 10
10.11.2018 00:00:00 11,5 8,9 55 30 58 31 - 1003,8 10
09.11.2018 23:00:00 11,6 8,6 57 31 61 33 S 1004,8 10
09.11.2018 22:00:00 11,7 8,5 57 31 61 33 S 1005,7 10

tt = Température de l'air
td = dewpoint
ff = Vitesse du vent
fx = gusts
dd = Direction du vent
ppp = reduced air pressure
vv = visibility

stations d'obs. à proximité